Location: Observatoire
(46.1952°N, 5.3391°E)
Time: 02:31:55
(UTC+01:00)

Explorer 7 - Pass Details

Date: 18 February 2026
Orbit: 430 x 541 km, 50.2° (Epoch: 10 March)

Event Time Altitude Azimuth Distance (km) Brightness Sun altitude
Rises 14:12:25 0° 187° (S) 2,397 11.2 29.6°
Reaches altitude 10° 14:15:50 10° 151° (SSE) 1,554 9.7 29.3°
Maximum altitude 14:16:54 11° 133° (SE) 1,495 9.4 29.3°
Drops below altitude 10° 14:17:56 10° 116° (ESE) 1,566 9.3 29.2°
Sets 14:21:30 0° 79° (E) 2,481 9.9 28.9°
